Location: San Gennaro Vesuviano
(40.8833°N, 14.5333°E)
Time: 09:36:06
(UTC+00:00)

Cosmos 2237 Rocket - Pass Details

Date: 22 April 2021
Orbit: 836 x 849 km, 71.0° (Epoch: 10 May)

Event Time Altitude Azimuth Distance (km) Brightness Sun altitude
Rises 18:36:50 0° 343° (NNW) 3,400 6.0 -9.2°
Reaches altitude 10° 18:39:29 10° 352° (N) 2,460 5.1 -9.7°
Maximum altitude 18:44:41 37° 59° (ENE) 1,284 2.9 -10.6°
Enters shadow 18:48:52 15° 120° (ESE) 2,118 3.6 -11.3°
